TimeEST,TemperatureF,Dew PointF,Humidity,Sea Level PressureIn,VisibilityMPH,Wind Direction,Wind SpeedMPH,Gust SpeedMPH,PrecipitationIn,Events,Conditions,WindDirDegrees,DateUTC
12:56 AM,37.9,30.0,73,30.12,10.0,NNW,4.6,-,N/A,,Clear,340,2013-01-18 05:56:00
1:56 AM,37.0,30.9,79,30.17,10.0,NW,3.5,-,N/A,,Clear,310,2013-01-18 06:56:00
2:56 AM,36.0,28.0,73,30.18,10.0,NNW,4.6,-,N/A,,Clear,330,2013-01-18 07:56:00
3:56 AM,37.0,26.1,65,30.19,10.0,NNW,13.8,21.9,N/A,,Clear,330,2013-01-18 08:56:00
4:56 AM,37.0,24.1,59,30.23,10.0,NNW,10.4,-,N/A,,Clear,340,2013-01-18 09:56:00
5:56 AM,36.0,23.0,59,30.26,10.0,North,4.6,-,N/A,,Partly Cloudy,360,2013-01-18 10:56:00
6:56 AM,36.0,19.9,52,30.32,10.0,North,10.4,-,N/A,,Scattered Clouds,360,2013-01-18 11:56:00
7:56 AM,36.0,15.1,43,30.38,10.0,North,11.5,20.7,N/A,,Partly Cloudy,360,2013-01-18 12:56:00
8:56 AM,35.1,17.1,48,30.43,10.0,NNW,13.8,-,N/A,,Partly Cloudy,340,2013-01-18 13:56:00
9:56 AM,37.0,17.1,44,30.48,10.0,North,13.8,-,N/A,,Partly Cloudy,350,2013-01-18 14:56:00
10:56 AM,37.0,19.0,48,30.49,10.0,North,13.8,24.2,N/A,,Partly Cloudy,10,2013-01-18 15:56:00
11:56 AM,37.0,16.0,42,30.49,10.0,North,11.5,-,N/A,,Partly Cloudy,360,2013-01-18 16:56:00
12:56 PM,37.9,15.1,39,30.48,10.0,North,9.2,-,N/A,,Clear,10,2013-01-18 17:56:00
1:56 PM,39.0,12.9,34,30.49,10.0,NNW,9.2,-,N/A,,Clear,340,2013-01-18 18:56:00
2:56 PM,39.9,14.0,35,30.50,10.0,North,8.1,-,N/A,,Partly Cloudy,350,2013-01-18 19:56:00
3:56 PM,39.0,15.1,38,30.51,10.0,East,5.8,-,N/A,,Partly Cloudy,90,2013-01-18 20:56:00
4:56 PM,37.0,16.0,42,30.52,10.0,ESE,5.8,-,N/A,,Clear,110,2013-01-18 21:56:00
5:56 PM,36.0,16.0,44,30.52,10.0,East,4.6,-,N/A,,Clear,100,2013-01-18 22:56:00
6:56 PM,35.1,18.0,50,30.53,10.0,SSE,8.1,-,N/A,,Clear,160,2013-01-18 23:56:00
7:56 PM,36.0,19.0,50,30.52,10.0,South,9.2,-,N/A,,Clear,180,2013-01-19 00:56:00
8:56 PM,35.1,19.9,54,30.52,10.0,SSW,6.9,-,N/A,,Clear,210,2013-01-19 01:56:00
9:56 PM,35.1,19.9,54,30.52,10.0,SSW,8.1,-,N/A,,Clear,210,2013-01-19 02:56:00
10:56 PM,34.0,23.0,64,30.50,10.0,SSW,5.8,-,N/A,,Clear,210,2013-01-19 03:56:00
11:56 PM,34.0,23.0,64,30.47,10.0,SSW,10.4,-,N/A,,Clear,210,2013-01-19 04:56:00